Regional Weather Roundup
Issued by NWS Newport/Morehead, NC

Current Version | Previous Version | Text Only | Print | Product List | Glossary On
Versions: 1 2 3 4 5 6 7 8 9 10 11 12 13 14 15 16 17 18 19 20 21 22 23 24 25 26 27 28 29 30 31 32 33 34 35 36 37 38 39 40 41 42 43 44 45 46 47 48 49 50
000
ASUS42 KMHX 261525
RWRMHX
WEATHER ROUNDUP FOR EASTERN NORTH CAROLINA
NATIONAL WEATHER SERVICE NEWPORT/MOREHEAD CITY NC
1100 AM EDT THU MAY 26 2016

NOTE: "FAIR" INDICATES FEW OR NO CLOUDS BELOW 12,000 FEET
WITH NO SIGNIFICANT WEATHER AND/OR OBSTRUCTIONS TO VISIBILITY

NCZ015>017-031-032-045>047-102-103-261600-
NORTH COAST

CITY           SKY/WX    TMP DP  RH WIND       PRES   REMARKS
EDENTON        NOT AVBL
ELIZABETH CITY SUNNY     79  66  64 S9        30.17F
KITTY HAWK     SUNNY     84  64  49 SW7       30.18S
MANTEO         NOT AVBL

$$

NCZ045>047-081-094-103-104-261600-
CENTRAL COAST

CITY           SKY/WX    TMP DP  RH WIND       PRES   REMARKS
FRISCO         SUNNY     75  66  73 SW9       30.21F

$$

NCZ095-097-098-100-101-261600-
SOUTHERN COAST

CITY           SKY/WX    TMP DP  RH WIND       PRES   REMARKS
BEAUFORT       SUNNY     78  67  68 SW14      30.22S
CEDAR ISLAND   NOT AVBL
JACKSONVILLE   MOSUNNY   82  63  52 W12       30.20F
PINEY ISLAND   NOT AVBL
WILMINGTON     PTSUNNY   80  65  59 SW8       30.21S


$$

NCZ011>013-027>030-043-044-078>080-089-090>093-098-261600-
COASTAL PLAIN

CITY           SKY/WX    TMP DP  RH WIND       PRES   REMARKS
AHOSKIE        NOT AVBL
CLINTON        SUNNY     81  67  63 SW5       30.19F
ELIZABETHTOWN  SUNNY     80  64  57 SW5       30.20F
GOLDSBORO      SUNNY     82  66  60 SW7       30.17F
GREENVILLE     SUNNY     82  66  57 S7        30.19S
HAVELOCK       MOSUNNY   81  65  58 SW12      30.21F
KENANSVILLE    SUNNY     81  63  55 SW8       30.20F
KINSTON        SUNNY     82  64  54 SW8       30.20F
NEW BERN       SUNNY     82  64  54 SW7       30.21F
RICHLANDS      PTSUNNY   81  63  54 SW9       30.21F
ROCKY MOUNT    SUNNY     81  65  58 S8        30.17F
WASHINGTON     SUNNY     81  64  57 SW7       30.18F
WHITEVILLE     SUNNY     81  60  49 SW3       30.20F

$$

AMZ130-135-150-152-154-156-158-170-250-252-270-ANZ085-086-088-633-658-670-261600-
MARINE OBSERVATIONS

STATION/POSITION TIME  TEMP    WIND        PRES    WAVE   SWELL
                       AIR SEA DIR/SP/G            HT/PER HT/PER
                 (UTC) (F)     (DEG/KT/KT) (MB)    (FT/S) (FT/S)
CHESAPEAKE LIGHT 1500   69     190/ 13/ 14 1021.6
64 E VA BEACH    1450   63 58  210/  8/ 10 1021.9    2/ 8   2/ 8
DUCK             1500   76 60  210/ 11/ 13 1021.3
2 E DUCK         1411      63                N/A     2/ 7
OREGON INLET     1500   73 71  180/ 13/ 16 1022.3
13E OREGON INLT  1500      65                N/A     2/ 9   2/ 9
HATTERAS CG      1500   76 71  200/  7/ 11 1022.7
DIAMOND BUOY     1450   72 70  240/  6/  6 1023.3    2/ 8   2/ 8
CAPE LOOKOUT     1500   78     220/  8/ 12 1023.0
BEAUFORT LAB     1500   77 70  210/  8/ 11 1022.5
30 SE NEW RVR IN 1455      74                N/A     2/ 8
27 SE WRIGHTSVLE 1508   76 74  240/  4/  6 1022.7
5 SE WRIGHTSVLE  1508   75 74  200/  8/ 12 1023.8
225 S CAPE HAT   1450   75 78   50/ 12/ 14 1022.8    2/ 9   2/ 9
41 SE CHARLESTON 1450   77 76  160/  4/  6 1022.8    2/ 7   2/ 7

$$




USA.gov is the U.S. government's official web portal to all federal, state and local government web resources and services.